,,Stat5,,Stat1,,Stat2,,Stat3,,Stat4,,Wind1,,Wind1,
time,status,PA1M_AVG,status,PR1M_SUM,status,RH1M_AVG,status,SR1M_AVG,status,TA1M_AVG,status,W1dAve1m,status,W1sAve1m,
2002-07-29, 07:07:00,VALID,918.037,VALID,0,VALID,99.1514,VALID,60.1558,VALID,18.6808,VALID,115,VALID,0.706209,
2002-07-29, 07:08:00,VALID,918.029,VALID,0,VALID,99.1368,VALID,62.014,VALID,18.6932,VALID,113,VALID,0.90645,
2002-07-29, 07:09:00,VALID,918.027,VALID,0,VALID,99.1305,VALID,63.8819,VALID,18.7089,VALID,108,VALID,0.915015,
2002-07-29, 07:10:00,VALID,918.021,VALID,0,VALID,99.0911,VALID,65.7837,VALID,18.726,VALID,99,VALID,0.670508,
2002-07-29, 07:11:00,VALID,918.018,VALID,0,VALID,99.0885,VALID,67.8384,VALID,18.7456,VALID,96,VALID,0.724724,
2002-07-29, 07:12:00,VALID,918.029,VALID,0,VALID,99.0872,VALID,69.8252,VALID,18.7682,VALID,110,VALID,0.819912,
2002-07-29, 07:13:00,VALID,918.033,VALID,0,VALID,99.086,VALID,71.8289,VALID,18.7774,VALID,111,VALID,0.691106,
2002-07-29, 07:14:00,VALID,918.041,VALID,0,VALID,99.0618,VALID,73.7138,VALID,18.8065,VALID,125,VALID,0.888302,
2002-07-29, 07:15:00,VALID,918.047,VALID,0,VALID,99.0046,VALID,75.7345,VALID,18.8127,VALID,130,VALID,0.978659,
2002-07-29, 07:16:00,VALID,918.04,VALID,0,VALID,98.9423,VALID,77.8911,VALID,18.8522,VALID,129,VALID,1.08479,
2002-07-29, 07:17:00,VALID,918.043,VALID,0,VALID,98.9003,VALID,80.0986,VALID,18.8678,VALID,133,VALID,1.10366,
2002-07-29, 07:18:00,VALID,918.046,VALID,0,VALID,98.8571,VALID,82.5608,VALID,18.8842,VALID,135,VALID,0.975561,
2002-07-29, 07:19:00,VALID,918.055,VALID,0,VALID,98.7846,VALID,85.1589,VALID,18.8997,VALID,129,VALID,0.999023,
2002-07-29, 07:20:00,VALID,918.067,VALID,0,VALID,98.7388,VALID,87.8079,VALID,18.9327,VALID,124,VALID,1.02385,
2002-07-29, 07:21:00,VALID,918.071,VALID,0,VALID,98.6892,VALID,90.5588,VALID,18.9384,VALID,139,VALID,0.724159,
2002-07-29, 07:22:00,VALID,918.093,VALID,0,VALID,98.6752,VALID,93.5304,VALID,18.9878,VALID,143,VALID,0.594669,
2002-07-29, 07:23:00,VALID,918.12,VALID,0,VALID,98.6028,VALID,96.8247,VALID,19.0127,VALID,144,VALID,0.884868,
2002-07-29, 07:24:00,VALID,918.143,VALID,0,VALID,98.5227,VALID,99.9322,VALID,19.0256,VALID,139,VALID,0.866787,
2002-07-29, 07:25:00,VALID,918.161,VALID,0,VALID,98.4247,VALID,103.108,VALID,19.0519,VALID,140,VALID,1.04006,
2002-07-29, 07:26:00,VALID,918.169,VALID,0,VALID,98.3548,VALID,106.368,VALID,19.085,VALID,132,VALID,0.787059,
2002-07-29, 07:27:00,VALID,918.172,VALID,0,VALID,98.3459,VALID,109.662,VALID,19.1004,VALID,103,VALID,0.809122,
2002-07-29, 07:28:00,VALID,918.152,VALID,0,VALID,98.2632,VALID,113.975,VALID,19.123,VALID,80,VALID,0.755345,
2002-07-29, 07:29:00,VALID,918.145,VALID,0,VALID,98.2798,VALID,118.679,VALID,19.168,VALID,65,VALID,0.49641,
2002-07-29, 07:30:00,VALID,918.134,VALID,0,VALID,98.1997,VALID,123.756,VALID,19.2127,VALID,84,VALID,0.758413,
2002-07-29, 07:31:00,VALID,918.116,VALID,0,VALID,98.0077,VALID,127.883,VALID,19.2254,VALID,77,VALID,1.09211,
2002-07-29, 07:32:00,VALID,918.098,VALID,0,VALID,98.0165,VALID,131.143,VALID,19.2582,VALID,80,VALID,0.619256,
2002-07-29, 07:33:00,VALID,918.096,VALID,0,VALID,98.0496,VALID,133.775,VALID,19.3193,VALID,116,VALID,0.505642,
2002-07-29, 07:34:00,VALID,918.099,VALID,0,VALID,97.8614,VALID,136.101,VALID,19.3484,VALID,133,VALID,0.746194,
2002-07-29, 07:35:00,VALID,918.107,VALID,0,VALID,97.6656,VALID,137.749,VALID,19.3618,VALID,128,VALID,0.963405,
2002-07-29, 07:36:00,VALID,918.125,VALID,0,VALID,97.7177,VALID,141.179,VALID,19.3837,VALID,111,VALID,0.647804,
2002-07-29, 07:37:00,VALID,918.157,VALID,0,VALID,97.8106,VALID,145.899,VALID,19.4517,VALID,128,VALID,0.402244,
2002-07-29, 07:38:00,VALID,918.176,VALID,0,VALID,97.8207,VALID,150.212,VALID,19.5325,VALID,120,VALID,0.515024,
2002-07-29, 07:39:00,VALID,918.182,VALID,0,VALID,97.5969,VALID,154.746,VALID,19.5747,VALID,149,VALID,0.613487,
2002-07-29, 07:40:00,VALID,918.2,VALID,0,VALID,97.3833,VALID,157.463,VALID,19.6003,VALID,135,VALID,0.788007,
2002-07-29, 07:41:00,VALID,918.221,VALID,0,VALID,97.1061,VALID,160.299,VALID,19.61,VALID,142,VALID,0.869336,
2002-07-29, 07:42:00,VALID,918.213,VALID,0,VALID,96.6229,VALID,162.422,VALID,19.5812,VALID,138,VALID,1.25699,
2002-07-29, 07:43:00,VALID,918.223,VALID,0,VALID,96.5415,VALID,165.054,VALID,19.565,VALID,140,VALID,1.4464,
2002-07-29, 07:44:00,VALID,918.216,VALID,0,VALID,96.3749,VALID,171.88,VALID,19.5613,VALID,141,VALID,1.575,
2002-07-29, 07:45:00,VALID,918.225,VALID,0,VALID,96.2414,VALID,178.112,VALID,19.5481,VALID,145,VALID,1.58087,
2002-07-29, 07:46:00,VALID,918.224,VALID,0,VALID,96.1549,VALID,183.733,VALID,19.5479,VALID,142,VALID,1.39085,
2002-07-29, 07:47:00,VALID,918.242,VALID,0,VALID,96.1943,VALID,190.746,VALID,19.5809,VALID,147,VALID,1.40925,
2002-07-29, 07:48:00,VALID,918.252,VALID,0,VALID,96.0672,VALID,198.981,VALID,19.6065,VALID,143,VALID,1.33594,
2002-07-29, 07:49:00,VALID,918.247,VALID,0,VALID,96.0634,VALID,202.598,VALID,19.6582,VALID,141,VALID,1.21217,
2002-07-29, 07:50:00,VALID,918.248,VALID,0,VALID,95.8777,VALID,202.157,VALID,19.6908,VALID,142,VALID,1.36883,
2002-07-29, 07:51:00,VALID,918.25,VALID,0,VALID,95.4657,VALID,202.87,VALID,19.7,VALID,129,VALID,1.34434,
2002-07-29, 07:52:00,VALID,918.258,VALID,0,VALID,95.6793,VALID,204.517,VALID,19.7385,VALID,130,VALID,0.583882,
2002-07-29, 07:53:00,VALID,918.258,VALID,0,VALID,95.7086,VALID,204.279,VALID,19.8004,VALID,120,VALID,0.769326,
2002-07-29, 07:54:00,VALID,918.281,VALID,0,VALID,95.776,VALID,209.17,VALID,19.8771,VALID,65,VALID,0.919341,
2002-07-29, 07:55:00,VALID,918.279,VALID,0,VALID,94.9545,VALID,213.177,VALID,19.9256,VALID,113,VALID,1.2066,
2002-07-29, 07:56:00,VALID,918.301,VALID,0,VALID,94.882,VALID,218.56,VALID,19.9584,VALID,107,VALID,0.897991,
2002-07-29, 07:57:00,VALID,918.321,VALID,0,VALID,94.7752,VALID,213.602,VALID,20.0131,VALID,127,VALID,1.17676,
2002-07-29, 07:58:00,VALID,918.332,VALID,0,VALID,94.807,VALID,211.275,VALID,20.0675,VALID,134,VALID,1.03466,
2002-07-29, 07:59:00,VALID,918.348,VALID,0,VALID,94.985,VALID,219.307,VALID,20.1386,VALID,129,VALID,1.27364,
2002-07-29, 08:00:00,VALID,918.352,VALID,0,VALID,94.7689,VALID,233.554,VALID,20.19,VALID,137,VALID,1.20374,
2002-07-29, 08:01:00,VALID,918.355,VALID,0,VALID,93.964,VALID,240.805,VALID,20.2062,VALID,143,VALID,1.56288,
2002-07-29, 08:02:00,VALID,918.374,VALID,0,VALID,93.8228,VALID,252.828,VALID,20.2255,VALID,142,VALID,1.31188,
2002-07-29, 08:03:00,VALID,918.378,VALID,0,VALID,93.7516,VALID,257.548,VALID,20.2576,VALID,129,VALID,1.16982,
2002-07-29, 08:04:00,VALID,918.395,VALID,0,VALID,94.0631,VALID,260.214,VALID,20.3351,VALID,121,VALID,0.850043,
2002-07-29, 08:05:00,VALID,918.411,VALID,0,VALID,94.142,VALID,267.567,VALID,20.4194,VALID,95,VALID,0.668919,
2002-07-29, 08:06:00,VALID,918.424,VALID,0,VALID,93.7757,VALID,273.374,VALID,20.5223,VALID,125,VALID,0.641518,
2002-07-29, 08:07:00,VALID,918.437,VALID,0,VALID,92.9568,VALID,273.069,VALID,20.561,VALID,124,VALID,0.93935,
2002-07-29, 08:08:00,VALID,918.449,VALID,0,VALID,92.7508,VALID,276.923,VALID,20.6063,VALID,109,VALID,1.12965,
2002-07-29, 08:09:00,VALID,918.449,VALID,0,VALID,92.7394,VALID,282.663,VALID,20.6545,VALID,143,VALID,0.725329,
2002-07-29, 08:10:00,VALID,918.465,VALID,0,VALID,92.3337,VALID,288.708,VALID,20.7161,VALID,118,VALID,0.686233,
2002-07-29, 08:11:00,VALID,918.471,VALID,0,VALID,91.6623,VALID,295.653,VALID,20.7571,VALID,133,VALID,0.684375,
2002-07-29, 08:12:00,VALID,918.466,VALID,0,VALID,91.1054,VALID,315.572,VALID,20.8152,VALID,142,VALID,0.856291,
2002-07-29, 08:13:00,VALID,918.476,VALID,0,VALID,91.3228,VALID,329.87,VALID,20.8958,VALID,116,VALID,0.896267,
2002-07-29, 08:14:00,VALID,918.483,VALID,0,VALID,90.9719,VALID,340.126,VALID,21.0061,VALID,133,VALID,0.848184,
2002-07-29, 08:15:00,VALID,918.5,VALID,0,VALID,90.6654,VALID,340.534,VALID,21.109,VALID,134,VALID,0.66723,
2002-07-29, 08:16:00,VALID,918.505,VALID,0,VALID,89.7931,VALID,353.252,VALID,21.2156,VALID,119,VALID,1.00369,
2002-07-29, 08:17:00,VALID,918.521,VALID,0,VALID,88.8915,VALID,349.669,VALID,21.2927,VALID,131,VALID,1.13114,
2002-07-29, 08:18:00,VALID,918.514,VALID,0,VALID,89.1573,VALID,342.724,VALID,21.3516,VALID,153,VALID,0.989654,
2002-07-29, 08:19:00,VALID,918.518,VALID,0,VALID,89.1433,VALID,363.509,VALID,21.4087,VALID,159,VALID,0.571135,
2002-07-29, 08:20:00,VALID,918.516,VALID,0,VALID,89.5311,VALID,375.09,VALID,21.5348,VALID,169,VALID,0.5331,
2002-07-29, 08:21:00,VALID,918.502,VALID,0,VALID,88.9195,VALID,377.535,VALID,21.7031,VALID,173,VALID,0.560742,
2002-07-29, 08:22:00,VALID,918.517,VALID,0,VALID,87.5741,VALID,385.652,VALID,21.8641,VALID,158,VALID,0.513158,
2002-07-29, 08:23:00,VALID,918.516,VALID,0,VALID,86.8493,VALID,386.959,VALID,22.0257,VALID,165,VALID,0.50514,
2002-07-29, 08:24:00,VALID,918.525,VALID,0,VALID,85.2852,VALID,375.888,VALID,22.2158,VALID,166,VALID,0.669975,
2002-07-29, 08:25:00,VALID,918.531,VALID,0,VALID,84.4752,VALID,365.343,VALID,22.3672,VALID,173,VALID,0.311198,
2002-07-29, 08:26:00,VALID,918.549,VALID,0,VALID,83.7288,VALID,360.163,VALID,22.5482,VALID,131,VALID,0.203125,
2002-07-29, 08:27:00,VALID,918.568,VALID,0,VALID,82.7687,VALID,380.388,VALID,22.7157,VALID,138,VALID,0.00117188,
2002-07-29, 08:28:00,VALID,918.593,VALID,0,VALID,83.0994,VALID,415.911,VALID,22.9061,VALID,131,VALID,0.179888,
2002-07-29, 08:29:00,VALID,918.606,VALID,0,VALID,80.8346,VALID,431.194,VALID,23.0158,VALID,208,VALID,0.514391,
2002-07-29, 08:30:00,VALID,918.599,VALID,0,VALID,80.6693,VALID,441.281,VALID,23.0549,VALID,171,VALID,0.365543,
2002-07-29, 08:31:00,VALID,918.571,VALID,0,VALID,81.2301,VALID,445.764,VALID,23.2565,VALID,102,VALID,0.466844,
2002-07-29, 08:32:00,VALID,918.57,VALID,0,VALID,81.4348,VALID,456.988,VALID,23.4531,VALID,84,VALID,0.659539,
2002-07-29, 08:33:00,VALID,918.557,VALID,0,VALID,80.0539,VALID,465.886,VALID,23.5463,VALID,134,VALID,0.629317,
2002-07-29, 08:34:00,VALID,918.554,VALID,0,VALID,80.3502,VALID,471.456,VALID,23.6245,VALID,146,VALID,0.0358073,
2002-07-29, 08:35:00,VALID,918.561,VALID,0,VALID,79.4333,VALID,480.863,VALID,23.7597,VALID,127,VALID,0.457981,
2002-07-29, 08:36:00,VALID,918.571,VALID,0,VALID,80.1696,VALID,492.529,VALID,23.8308,VALID,82,VALID,0.134375,
2002-07-29, 08:37:00,VALID,918.582,VALID,0,VALID,78.5763,VALID,503.38,VALID,23.8273,VALID,206,VALID,0.440173,
2002-07-29, 08:38:00,VALID,918.602,VALID,0,VALID,78.1236,VALID,510.902,VALID,23.7232,VALID,251,VALID,0.34734,
2002-07-29, 08:39:00,VALID,918.613,VALID,0,VALID,77.6747,VALID,514.978,VALID,23.6815,VALID,255,VALID,0.334498,
2002-07-29, 08:40:00,VALID,918.627,VALID,0,VALID,77.662,VALID,516.115,VALID,23.7064,VALID,255,VALID,0.0295608,
2002-07-29, 08:41:00,VALID,918.634,VALID,0,VALID,77.0796,VALID,512.498,VALID,23.9257,VALID,211,VALID,0.280664,
2002-07-29, 08:42:00,VALID,918.639,VALID,0,VALID,73.4733,VALID,520.496,VALID,24.1908,VALID,142,VALID,0.649877,
2002-07-29, 08:43:00,VALID,918.653,VALID,0,VALID,71.9741,VALID,527.679,VALID,24.2814,VALID,95,VALID,0.702908,
2002-07-29, 08:44:00,VALID,918.652,VALID,0,VALID,74.0036,VALID,527.526,VALID,24.2966,VALID,41,VALID,0.506123,
2002-07-29, 08:45:00,VALID,918.658,VALID,0,VALID,73.8039,VALID,530.413,VALID,24.3707,VALID,60,VALID,0.519003,
2002-07-29, 08:46:00,VALID,918.68,VALID,0,VALID,73.4415,VALID,524.436,VALID,24.4354,VALID,84,VALID,0.479167,
2002-07-29, 08:47:00,VALID,918.701,VALID,0,VALID,74.366,VALID,533.079,VALID,24.5576,VALID,54,VALID,0.139323,
2002-07-29, 08:48:00,VALID,918.713,VALID,0,VALID,74.7767,VALID,534.438,VALID,24.7151,VALID,26,VALID,0.511824,
2002-07-29, 08:49:00,VALID,918.726,VALID,0,VALID,73.2915,VALID,540.517,VALID,24.7378,VALID,334,VALID,0.840461,
2002-07-29, 08:50:00,VALID,918.724,VALID,0,VALID,72.8439,VALID,542.826,VALID,24.3856,VALID,312,VALID,0.909539,
2002-07-29, 08:51:00,VALID,918.747,VALID,0,VALID,74.076,VALID,546.019,VALID,24.0226,VALID,302,VALID,0.718945,
2002-07-29, 08:52:00,VALID,918.746,VALID,0,VALID,77.222,VALID,553.507,VALID,23.8768,VALID,342,VALID,0.565584,
2002-07-29, 08:53:00,VALID,918.722,VALID,0,VALID,77.8044,VALID,539.311,VALID,24.0161,VALID,307,VALID,0.284745,
2002-07-29, 08:54:00,VALID,918.725,VALID,0,VALID,76.075,VALID,496.995,VALID,24.0158,VALID,244,VALID,0.814611,
2002-07-29, 08:55:00,VALID,918.719,VALID,0,VALID,77.6175,VALID,532.332,VALID,23.7863,VALID,274,VALID,1.34462,
2002-07-29, 08:56:00,VALID,918.713,VALID,0,VALID,78.1808,VALID,532.672,VALID,23.5303,VALID,267,VALID,0.864509,
2002-07-29, 08:57:00,VALID,918.71,VALID,0,VALID,79.6215,VALID,522.33,VALID,23.501,VALID,289,VALID,0.944336,
2002-07-29, 08:58:00,VALID,918.709,VALID,0,VALID,77.9544,VALID,448.26,VALID,23.4801,VALID,286,VALID,0.617989,
2002-07-29, 08:59:00,VALID,918.726,VALID,0,VALID,78.3881,VALID,403.176,VALID,23.4084,VALID,259,VALID,0.729852,
2002-07-29, 09:00:00,VALID,918.725,VALID,0,VALID,79.5058,VALID,529.989,VALID,23.4672,VALID,275,VALID,0.389391,
2002-07-29, 09:01:00,VALID,918.733,VALID,0,VALID,79.7843,VALID,528.647,VALID,23.5826,VALID,281,VALID,0.510099,
2002-07-29, 09:02:00,VALID,918.757,VALID,0,VALID,77.634,VALID,528.562,VALID,23.4266,VALID,307,VALID,0.794819,
2002-07-29, 09:03:00,VALID,918.76,VALID,0,VALID,77.896,VALID,397.776,VALID,23.4107,VALID,311,VALID,0.0662007,
2002-07-29, 09:04:00,VALID,918.771,VALID,0,VALID,78.6297,VALID,375.871,VALID,23.6214,VALID,261,VALID,0.492839,
2002-07-29, 09:05:00,VALID,918.773,VALID,0,VALID,79.2477,VALID,496.316,VALID,23.6435,VALID,282,VALID,0.565878,
2002-07-29, 09:06:00,VALID,918.778,VALID,0,VALID,79.7639,VALID,429.174,VALID,23.6526,VALID,297,VALID,0.590179,
2002-07-29, 09:07:00,VALID,918.776,VALID,0,VALID,79.2947,VALID,383.869,VALID,23.7275,VALID,265,VALID,0.493215,
2002-07-29, 09:08:00,VALID,918.781,VALID,0,VALID,79.9979,VALID,351.809,VALID,23.7398,VALID,260,VALID,0.655194,
2002-07-29, 09:09:00,VALID,918.787,VALID,0,VALID,77.578,VALID,353.914,VALID,23.6814,VALID,310,VALID,0.449013,
2002-07-29, 09:10:00,VALID,918.805,VALID,0,VALID,76.7172,VALID,345.186,VALID,23.756,VALID,323,VALID,0.614865,
2002-07-29, 09:11:00,VALID,918.788,VALID,0,VALID,77.7764,VALID,354.203,VALID,23.7008,VALID,341,VALID,0.895508,
2002-07-29, 09:12:00,VALID,918.785,VALID,0,VALID,78.6322,VALID,378.18,VALID,23.7263,VALID,28,VALID,1.13178,
2002-07-29, 09:13:00,VALID,918.766,VALID,0,VALID,79.1091,VALID,395.806,VALID,23.853,VALID,23,VALID,1.02517,
2002-07-29, 09:14:00,VALID,918.752,VALID,0,VALID,79.5503,VALID,412.906,VALID,23.9623,VALID,312,VALID,0.551731,
2002-07-29, 09:15:00,VALID,918.747,VALID,0,VALID,79.0239,VALID,423.213,VALID,23.9955,VALID,305,VALID,0.453125,
2002-07-29, 09:16:00,VALID,918.728,VALID,0,VALID,77.442,VALID,391.561,VALID,23.93,VALID,293,VALID,0.477865,
2002-07-29, 09:17:00,VALID,918.715,VALID,0,VALID,77.6976,VALID,397.657,VALID,23.8104,VALID,297,VALID,0.771019,
2002-07-29, 09:18:00,VALID,918.674,VALID,0,VALID,79.0302,VALID,385.482,VALID,23.7005,VALID,325,VALID,0.403083,
2002-07-29, 09:19:00,VALID,918.652,VALID,0,VALID,78.6398,VALID,358.975,VALID,23.7583,VALID,319,VALID,0.461143,
2002-07-29, 09:20:00,VALID,918.633,VALID,0,VALID,78.1465,VALID,367.516,VALID,23.8168,VALID,349,VALID,0.441406,
2002-07-29, 09:21:00,VALID,918.618,VALID,0,VALID,79.7576,VALID,348.345,VALID,23.8424,VALID,4,VALID,1.1002,
2002-07-29, 09:22:00,VALID,918.61,VALID,0,VALID,79.3697,VALID,316.557,VALID,23.9361,VALID,16,VALID,1.1875,
2002-07-29, 09:23:00,VALID,918.607,VALID,0,VALID,78.912,VALID,313.704,VALID,23.9206,VALID,18,VALID,1.37973,
2002-07-29, 09:24:00,VALID,918.604,VALID,0,VALID,79.2718,VALID,312.549,VALID,23.8838,VALID,15,VALID,1.65287,
2002-07-29, 09:25:00,VALID,918.606,VALID,0,VALID,79.4486,VALID,318.391,VALID,23.8592,VALID,349,VALID,1.2207,
2002-07-29, 09:26:00,VALID,918.613,VALID,0,VALID,79.3036,VALID,315.572,VALID,23.791,VALID,357,VALID,0.873661,
2002-07-29, 09:27:00,VALID,918.608,VALID,0,VALID,80.2192,VALID,316.608,VALID,23.8624,VALID,19,VALID,1.55254,
2002-07-29, 09:28:00,VALID,918.597,VALID,0,VALID,79.1002,VALID,324.623,VALID,23.7845,VALID,354,VALID,1.20232,
2002-07-29, 09:29:00,VALID,918.585,VALID,0,VALID,79.2769,VALID,354.424,VALID,23.7069,VALID,3,VALID,1.07237,
2002-07-29, 09:30:00,VALID,918.563,VALID,0,VALID,78.4504,VALID,398.948,VALID,23.6875,VALID,1,VALID,1.43277,
2002-07-29, 09:31:00,VALID,918.567,VALID,0,VALID,79.0035,VALID,446.8,VALID,23.6714,VALID,9,VALID,0.710175,
2002-07-29, 09:32:00,VALID,918.562,VALID,0,VALID,79.5414,VALID,464.545,VALID,23.778,VALID,348,VALID,0.877673,
2002-07-29, 09:33:00,VALID,918.557,VALID,0,VALID,80.1136,VALID,468.569,VALID,23.8265,VALID,2,VALID,1.07627,
2002-07-29, 09:34:00,VALID,918.577,VALID,0,VALID,79.1587,VALID,499.219,VALID,23.9594,VALID,22,VALID,1.34006,
2002-07-29, 09:35:00,VALID,918.596,VALID,0,VALID,79.0048,VALID,503.346,VALID,24.1466,VALID,11,VALID,0.927787,
2002-07-29, 09:36:00,VALID,918.615,VALID,0,VALID,76.9715,VALID,512.634,VALID,24.2788,VALID,241,VALID,0.347545,
2002-07-29, 09:37:00,VALID,918.636,VALID,0,VALID,77.1317,VALID,518.595,VALID,24.4508,VALID,6,VALID,0.479852,
2002-07-29, 09:38:00,VALID,918.645,VALID,0,VALID,77.7955,VALID,518.595,VALID,24.5668,VALID,4,VALID,0.93011,
2002-07-29, 09:39:00,VALID,918.644,VALID,0,VALID,75.6605,VALID,535.609,VALID,24.69,VALID,7,VALID,0.951275,
2002-07-29, 09:40:00,VALID,918.64,VALID,0,VALID,73.865,VALID,536.289,VALID,24.635,VALID,32,VALID,1.36402,
2002-07-29, 09:41:00,VALID,918.634,VALID,0,VALID,75.3044,VALID,520.904,VALID,24.4989,VALID,80,VALID,0.64707,
2002-07-29, 09:42:00,VALID,918.641,VALID,0,VALID,75.4494,VALID,522.195,VALID,24.5607,VALID,106,VALID,0.0768914,
2002-07-29, 09:43:00,VALID,918.637,VALID,0,VALID,75.5422,VALID,549.771,VALID,24.6965,VALID,134,VALID,0.0885417,
2002-07-29, 09:44:00,VALID,918.658,VALID,0,VALID,75.4812,VALID,578.843,VALID,24.7828,VALID,231,VALID,0.576858,
2002-07-29, 09:45:00,VALID,918.665,VALID,0,VALID,74.6724,VALID,574.682,VALID,24.5762,VALID,266,VALID,0.92272,
2002-07-29, 09:46:00,VALID,918.699,VALID,0,VALID,74.8098,VALID,586.671,VALID,24.4786,VALID,311,VALID,0.667969,
2002-07-29, 09:47:00,VALID,918.716,VALID,0,VALID,75.5791,VALID,589.354,VALID,24.5491,VALID,344,VALID,0.46782,
2002-07-29, 09:48:00,VALID,918.729,VALID,0,VALID,72.3378,VALID,609.561,VALID,24.5982,VALID,249,VALID,0.76478,
2002-07-29, 09:49:00,VALID,918.758,VALID,0,VALID,73.0384,VALID,623.604,VALID,24.5889,VALID,212,VALID,0.833882,
2002-07-29, 09:50:00,VALID,918.755,VALID,0,VALID,72.545,VALID,634.76,VALID,24.5494,VALID,246,VALID,1.03475,
2002-07-29, 09:51:00,VALID,918.759,VALID,0,VALID,73.776,VALID,635.643,VALID,24.4463,VALID,234,VALID,0.603516,
2002-07-29, 09:52:00,VALID,918.766,VALID,0,VALID,74.3253,VALID,644.949,VALID,24.5371,VALID,266,VALID,0.478413,
2002-07-29, 09:53:00,VALID,918.771,VALID,0,VALID,72.9774,VALID,666.82,VALID,24.6277,VALID,180,VALID,0.310238,
2002-07-29, 09:54:00,VALID,918.771,VALID,0,VALID,74.1091,VALID,660.537,VALID,24.8204,VALID,28,VALID,0.682221,
2002-07-29, 09:55:00,VALID,918.764,VALID,0,VALID,73.2393,VALID,662.218,VALID,24.9885,VALID,57,VALID,0.483724,
2002-07-29, 09:56:00,VALID,918.762,VALID,0,VALID,74.4931,VALID,658.602,VALID,25.2058,VALID,32,VALID,0.319196,
2002-07-29, 09:57:00,VALID,918.785,VALID,0,VALID,73.5878,VALID,664.579,VALID,25.5353,VALID,15,VALID,0.144727,
2002-07-29, 09:58:00,VALID,918.803,VALID,0,VALID,73.3436,VALID,685.16,VALID,25.6705,VALID,255,VALID,0.486979,
2002-07-29, 09:59:00,VALID,918.821,VALID,0,VALID,73.4886,VALID,592.801,VALID,25.6766,VALID,259,VALID,0.326069,
2002-07-29, 10:00:00,VALID,918.851,VALID,0,VALID,72.9723,VALID,494.957,VALID,25.6993,VALID,304,VALID,0.744243,
2002-07-29, 10:01:00,VALID,918.875,VALID,0,VALID,69.7399,VALID,659.773,VALID,25.5305,VALID,299,VALID,0.955983,
2002-07-29, 10:02:00,VALID,918.878,VALID,0,VALID,69.8162,VALID,667.296,VALID,25.0564,VALID,307,VALID,0.830387,
2002-07-29, 10:03:00,VALID,918.871,VALID,0,VALID,69.0774,VALID,701.631,VALID,25.0147,VALID,344,VALID,0.394737,
2002-07-29, 10:04:00,VALID,918.847,VALID,0,VALID,69.6191,VALID,453.999,VALID,25.1761,VALID,345,VALID,0.570747,
2002-07-29, 10:05:00,VALID,918.86,VALID,0,VALID,72.0974,VALID,382.425,VALID,25.3109,VALID,18,VALID,1.18919,
2002-07-29, 10:06:00,VALID,918.855,VALID,0,VALID,73.8612,VALID,683.02,VALID,25.4849,VALID,26,VALID,1.07411,
2002-07-29, 10:07:00,VALID,918.844,VALID,0,VALID,71.2887,VALID,711.395,VALID,25.7067,VALID,33,VALID,1.26686,
2002-07-29, 10:08:00,VALID,918.825,VALID,0,VALID,70.3248,VALID,715.385,VALID,25.7746,VALID,352,VALID,1.59185,
2002-07-29, 10:09:00,VALID,918.825,VALID,0,VALID,68.7493,VALID,738.938,VALID,25.7611,VALID,337,VALID,0.652755,
2002-07-29, 10:10:00,VALID,918.812,VALID,0,VALID,69.9929,VALID,752.319,VALID,25.7876,VALID,321,VALID,0.785262,
2002-07-29, 10:11:00,VALID,918.822,VALID,0,VALID,70.0082,VALID,735.508,VALID,25.6783,VALID,343,VALID,0.536328,
2002-07-29, 10:12:00,VALID,918.8,VALID,0,VALID,70.9695,VALID,515.844,VALID,25.6708,VALID,325,VALID,0.793586,
2002-07-29, 10:13:00,VALID,918.802,VALID,0,VALID,71.7579,VALID,564.816,VALID,25.5418,VALID,348,VALID,1.22266,
2002-07-29, 10:14:00,VALID,918.767,VALID,0,VALID,71.5824,VALID,678.894,VALID,25.4412,VALID,19,VALID,2.35769,
2002-07-29, 10:15:00,VALID,918.745,VALID,0,VALID,72.0949,VALID,672.509,VALID,25.5893,VALID,9,VALID,0.933488,
2002-07-29, 10:16:00,VALID,918.761,VALID,0,VALID,69.8454,VALID,692.716,VALID,25.7404,VALID,341,VALID,0.834852,
2002-07-29, 10:17:00,VALID,918.738,VALID,0,VALID,69.5021,VALID,713.484,VALID,25.6307,VALID,313,VALID,0.662202,
2002-07-29, 10:18:00,VALID,918.731,VALID,0,VALID,70.3274,VALID,741.434,VALID,25.6796,VALID,7,VALID,0.778927,
2002-07-29, 10:19:00,VALID,918.721,VALID,0,VALID,69.3431,VALID,511.242,VALID,25.763,VALID,344,VALID,0.888569,
2002-07-29, 10:20:00,VALID,918.717,VALID,0,VALID,69.4741,VALID,720.921,VALID,25.7892,VALID,13,VALID,0.965049,
2002-07-29, 10:21:00,VALID,918.699,VALID,0,VALID,69.2312,VALID,728.325,VALID,25.7986,VALID,315,VALID,1.13672,
2002-07-29, 10:22:00,VALID,918.672,VALID,0,VALID,68.7468,VALID,780.609,VALID,25.6307,VALID,12,VALID,0.491776,
2002-07-29, 10:23:00,VALID,918.645,VALID,0,VALID,70.6936,VALID,698.676,VALID,25.8273,VALID,312,VALID,1.34581,
2002-07-29, 10:24:00,VALID,918.629,VALID,0,VALID,72.03,VALID,722.449,VALID,25.9664,VALID,16,VALID,1.94362,
2002-07-29, 10:25:00,VALID,918.619,VALID,0,VALID,73.4682,VALID,905.231,VALID,26.1404,VALID,348,VALID,1.18251,
2002-07-29, 10:26:00,VALID,918.609,VALID,0,VALID,68.8803,VALID,987.435,VALID,26.3484,VALID,313,VALID,0.69375,
2002-07-29, 10:27:00,VALID,918.614,VALID,0,VALID,68.2318,VALID,700.103,VALID,26.3736,VALID,329,VALID,0.892773,
2002-07-29, 10:28:00,VALID,918.597,VALID,0,VALID,67.601,VALID,393.565,VALID,26.4933,VALID,42,VALID,0.96895,
2002-07-29, 10:29:00,VALID,918.586,VALID,0,VALID,68.6844,VALID,307.387,VALID,26.3574,VALID,318,VALID,0.774465,
2002-07-29, 10:30:00,VALID,918.609,VALID,0,VALID,69.6191,VALID,290.916,VALID,26.218,VALID,360,VALID,0.613692,
2002-07-29, 10:31:00,VALID,918.595,VALID,0,VALID,69.7437,VALID,276.855,VALID,26.2672,VALID,13,VALID,0.783346,
2002-07-29, 10:32:00,VALID,918.573,VALID,0,VALID,71.0191,VALID,287.129,VALID,26.2144,VALID,8,VALID,0.686061,
2002-07-29, 10:33:00,VALID,918.553,VALID,0,VALID,71.2798,VALID,524.911,VALID,26.1824,VALID,110,VALID,0.432155,
2002-07-29, 10:34:00,VALID,918.532,VALID,0,VALID,71.5545,VALID,697.844,VALID,26.2659,VALID,50,VALID,0.697917,
2002-07-29, 10:35:00,VALID,918.497,VALID,0,VALID,70.6275,VALID,802.718,VALID,26.2406,VALID,11,VALID,1.05046,
2002-07-29, 10:36:00,VALID,918.52,VALID,0,VALID,70.0006,VALID,814.129,VALID,26.2151,VALID,322,VALID,0.494866,
2002-07-29, 10:37:00,VALID,918.511,VALID,0,VALID,70.5397,VALID,557.498,VALID,26.1688,VALID,358,VALID,0.766036,
2002-07-29, 10:38:00,VALID,918.499,VALID,0,VALID,70.2155,VALID,388.793,VALID,26.0948,VALID,348,VALID,0.892103,
2002-07-29, 10:39:00,VALID,918.494,VALID,0,VALID,70.7788,VALID,576.601,VALID,25.9945,VALID,7,VALID,0.821957,
2002-07-29, 10:40:00,VALID,918.484,VALID,0,VALID,71.454,VALID,1027.51,VALID,26.0757,VALID,9,VALID,1.40942,